Time,TemperatureF,DewpointF,PressureIn,WindDirection,WindDirectionDegrees,WindSpeedMPH,WindSpeedGustMPH,Humidity,HourlyPrecipIn,Conditions,Clouds,dailyrainin,SoftwareType,DateUTC
2013-01-30 00:01:00,45.0,43.1,30.21,SSE,157,2.7,2.7,93,0.00,,,0.00,WUHU21623XXSP,2013-01-30 08:01:00,
2013-01-30 00:06:00,45.0,43.1,30.20,SSE,157,0.0,2.7,93,0.00,,,0.00,WUHU21623XXSP,2013-01-30 08:06:00,
2013-01-30 00:12:00,45.0,43.1,30.20,SE,135,0.0,3.6,93,0.00,,,0.00,WUHU21623XXSP,2013-01-30 08:12:00,
2013-01-30 00:17:00,45.0,43.1,30.19,SSE,157,1.3,3.6,93,0.00,,,0.00,WUHU21623XXSP,2013-01-30 08:17:00,
2013-01-30 00:22:00,45.0,43.1,30.19,SE,135,0.0,1.3,93,0.00,,,0.00,WUHU21623XXSP,2013-01-30 08:22:00,
2013-01-30 00:27:00,45.0,43.1,30.20,SE,135,0.0,0.0,93,0.00,,,0.00,WUHU21623XXSP,2013-01-30 08:27:00,
2013-01-30 00:33:00,45.0,43.1,30.19,SE,135,0.0,0.0,93,0.00,,,0.00,WUHU21623XXSP,2013-01-30 08:33:00,
2013-01-30 00:38:00,45.0,43.1,30.19,SSE,157,0.0,0.0,93,0.00,,,0.00,WUHU21623XXSP,2013-01-30 08:38:00,
2013-01-30 00:43:00,45.0,43.1,30.19,SSE,157,4.0,4.0,93,0.00,,,0.00,WUHU21623XXSP,2013-01-30 08:43:00,
2013-01-30 00:48:00,45.0,43.1,30.19,SE,135,0.0,4.0,93,0.00,,,0.00,WUHU21623XXSP,2013-01-30 08:48:00,
2013-01-30 00:54:00,45.0,43.1,30.20,SE,135,0.0,1.6,93,0.00,,,0.00,WUHU21623XXSP,2013-01-30 08:54:00,
2013-01-30 00:59:00,45.0,43.1,30.19,ESE,112,0.0,0.0,93,0.00,,,0.00,WUHU21623XXSP,2013-01-30 08:59:00,
2013-01-30 01:04:00,45.0,43.1,30.19,SE,135,0.0,0.0,93,0.00,,,0.00,WUHU21623XXSP,2013-01-30 09:04:00,
2013-01-30 01:09:00,45.0,43.1,30.19,SSE,157,0.0,0.0,93,0.00,,,0.00,WUHU21623XXSP,2013-01-30 09:09:00,
2013-01-30 01:15:00,45.0,43.1,30.19,SSE,157,0.0,0.0,93,0.00,,,0.00,WUHU21623XXSP,2013-01-30 09:15:00,
2013-01-30 01:20:00,45.0,43.1,30.19,WSW,247,0.0,0.0,93,0.00,,,0.00,WUHU21623XXSP,2013-01-30 09:20:00,
2013-01-30 01:25:00,45.0,43.1,30.19,SE,135,0.0,0.0,93,0.00,,,0.00,WUHU21623XXSP,2013-01-30 09:25:00,
2013-01-30 01:31:00,45.0,43.1,30.19,SE,135,0.0,0.0,93,0.00,,,0.00,WUHU21623XXSP,2013-01-30 09:31:00,
2013-01-30 01:36:00,45.1,43.3,30.19,SE,135,0.0,0.0,93,0.00,,,0.00,WUHU21623XXSP,2013-01-30 09:36:00,
2013-01-30 01:41:00,45.0,43.1,30.20,ESE,112,0.0,0.0,93,0.00,,,0.00,WUHU21623XXSP,2013-01-30 09:41:00,
2013-01-30 01:46:00,45.1,43.3,30.19,SE,135,0.0,0.0,93,0.00,,,0.00,WUHU21623XXSP,2013-01-30 09:46:00,
2013-01-30 01:52:00,45.1,43.3,30.20,SE,135,0.0,0.0,93,0.00,,,0.00,WUHU21623XXSP,2013-01-30 09:52:00,
2013-01-30 01:57:00,45.1,43.3,30.19,SE,135,0.0,0.0,93,0.00,,,0.00,WUHU21623XXSP,2013-01-30 09:57:00,
2013-01-30 02:02:00,45.1,43.3,30.19,SSE,157,0.0,0.0,93,0.00,,,0.00,WUHU21623XXSP,2013-01-30 10:02:00,
2013-01-30 02:07:00,45.1,43.3,30.20,SE,135,0.0,0.0,93,0.00,,,0.00,WUHU21623XXSP,2013-01-30 10:07:00,
2013-01-30 02:13:00,45.1,43.3,30.20,SE,135,0.0,0.0,93,0.00,,,0.00,WUHU21623XXSP,2013-01-30 10:13:00,
2013-01-30 02:18:00,45.1,43.3,30.20,SE,135,0.0,0.0,93,0.00,,,0.00,WUHU21623XXSP,2013-01-30 10:18:00,
2013-01-30 02:23:00,45.3,43.4,30.21,SE,135,0.0,0.0,93,0.00,,,0.00,WUHU21623XXSP,2013-01-30 10:23:00,
2013-01-30 02:28:00,45.1,43.3,30.21,SE,135,0.0,0.0,93,0.00,,,0.00,WUHU21623XXSP,2013-01-30 10:28:00,
2013-01-30 02:34:00,45.3,43.4,30.20,SE,135,0.0,0.0,93,0.00,,,0.00,WUHU21623XXSP,2013-01-30 10:34:00,
2013-01-30 02:39:00,45.3,43.4,30.20,SE,135,0.0,0.0,93,0.00,,,0.00,WUHU21623XXSP,2013-01-30 10:39:00,
2013-01-30 02:44:00,45.3,43.4,30.20,SE,135,0.0,0.0,93,0.00,,,0.00,WUHU21623XXSP,2013-01-30 10:44:00,
2013-01-30 02:49:00,45.3,43.4,30.20,SSE,157,0.0,0.0,93,0.00,,,0.00,WUHU21623XXSP,2013-01-30 10:49:00,
2013-01-30 02:55:00,45.3,43.4,30.20,SSE,157,0.0,0.0,93,0.00,,,0.00,WUHU21623XXSP,2013-01-30 10:55:00,
2013-01-30 03:00:00,45.3,43.4,30.20,SE,135,0.0,0.0,93,0.00,,,0.00,WUHU21623XXSP,2013-01-30 11:00:00,
2013-01-30 03:05:00,45.5,43.6,30.20,ESE,112,0.0,0.0,93,0.00,,,0.00,WUHU21623XXSP,2013-01-30 11:05:00,
2013-01-30 03:10:00,45.5,43.6,30.20,SE,135,0.0,0.0,93,0.00,,,0.00,WUHU21623XXSP,2013-01-30 11:10:00,
2013-01-30 03:16:00,45.5,43.6,30.20,SE,135,0.0,0.0,93,0.00,,,0.00,WUHU21623XXSP,2013-01-30 11:16:00,
2013-01-30 03:21:00,45.7,43.8,30.20,SE,135,0.0,0.0,93,0.00,,,0.00,WUHU21623XXSP,2013-01-30 11:21:00,
2013-01-30 03:26:00,45.7,43.8,30.20,ENE,67,0.0,0.0,93,0.00,,,0.00,WUHU21623XXSP,2013-01-30 11:26:00,
2013-01-30 03:32:00,45.7,43.8,30.20,SE,135,0.0,0.0,93,0.00,,,0.00,WUHU21623XXSP,2013-01-30 11:32:00,
2013-01-30 03:37:00,45.7,43.8,30.20,SE,135,0.0,0.0,93,0.00,,,0.00,WUHU21623XXSP,2013-01-30 11:37:00,
2013-01-30 03:42:00,45.7,43.8,30.20,SE,135,0.0,0.0,93,0.00,,,0.00,WUHU21623XXSP,2013-01-30 11:42:00,
2013-01-30 03:47:00,45.7,43.8,30.20,SE,135,0.0,0.0,93,0.00,,,0.00,WUHU21623XXSP,2013-01-30 11:47:00,
2013-01-30 03:53:00,45.7,43.8,30.20,SE,135,0.0,0.0,93,0.00,,,0.00,WUHU21623XXSP,2013-01-30 11:53:00,
2013-01-30 03:58:00,45.7,43.8,30.20,SE,135,0.0,0.0,93,0.00,,,0.00,WUHU21623XXSP,2013-01-30 11:58:00,
2013-01-30 04:03:00,45.7,43.8,30.21,SE,135,0.0,0.0,93,0.00,,,0.00,WUHU21623XXSP,2013-01-30 12:03:00,
2013-01-30 04:08:00,45.7,43.8,30.21,SW,225,0.0,0.0,93,0.00,,,0.00,WUHU21623XXSP,2013-01-30 12:08:00,
2013-01-30 04:14:00,45.7,43.8,30.21,SSW,202,0.0,0.0,93,0.00,,,0.00,WUHU21623XXSP,2013-01-30 12:14:00,
2013-01-30 04:19:00,45.7,43.8,30.21,SSW,202,0.0,0.0,93,0.00,,,0.00,WUHU21623XXSP,2013-01-30 12:19:00,
2013-01-30 04:24:00,45.7,43.8,30.21,SSE,157,0.0,0.0,93,0.00,,,0.00,WUHU21623XXSP,2013-01-30 12:24:00,
2013-01-30 04:29:00,45.7,43.8,30.21,SSE,157,0.0,0.0,93,0.00,,,0.00,WUHU21623XXSP,2013-01-30 12:29:00,
2013-01-30 04:35:00,45.7,43.8,30.21,ESE,112,0.0,0.0,93,0.00,,,0.00,WUHU21623XXSP,2013-01-30 12:35:00,
2013-01-30 04:40:00,45.7,43.8,30.20,SE,135,0.0,0.0,93,0.00,,,0.00,WUHU21623XXSP,2013-01-30 12:40:00,
2013-01-30 04:45:00,45.7,43.8,30.20,ESE,112,0.0,0.0,93,0.00,,,0.00,WUHU21623XXSP,2013-01-30 12:45:00,
2013-01-30 04:50:00,45.7,43.8,30.20,SE,135,0.0,0.0,93,0.00,,,0.00,WUHU21623XXSP,2013-01-30 12:50:00,
2013-01-30 04:56:00,45.7,43.8,30.21,East,90,0.0,0.0,93,0.00,,,0.00,WUHU21623XXSP,2013-01-30 12:56:00,
2013-01-30 05:01:00,45.9,44.0,30.21,SE,135,0.0,0.0,93,0.00,,,0.00,WUHU21623XXSP,2013-01-30 13:01:00,
2013-01-30 05:06:00,45.9,44.0,30.21,SE,135,0.0,0.0,93,0.00,,,0.00,WUHU21623XXSP,2013-01-30 13:06:00,
2013-01-30 05:11:00,45.9,44.0,30.21,SSE,157,0.0,0.0,93,0.00,,,0.00,WUHU21623XXSP,2013-01-30 13:11:00,
2013-01-30 05:17:00,45.9,44.2,30.20,SE,135,0.0,0.0,94,0.00,,,0.00,WUHU21623XXSP,2013-01-30 13:17:00,
2013-01-30 05:22:00,45.9,44.2,30.20,SE,135,0.0,0.0,94,0.00,,,0.00,WUHU21623XXSP,2013-01-30 13:22:00,
2013-01-30 05:27:00,46.0,44.4,30.20,SSE,157,0.0,0.0,94,0.00,,,0.00,WUHU21623XXSP,2013-01-30 13:27:00,
2013-01-30 05:32:00,46.0,44.4,30.20,SE,135,0.0,0.0,94,0.00,,,0.00,WUHU21623XXSP,2013-01-30 13:32:00,
2013-01-30 05:38:00,46.0,44.4,30.20,SE,135,0.0,0.0,94,0.00,,,0.00,WUHU21623XXSP,2013-01-30 13:38:00,
2013-01-30 05:43:00,46.0,44.4,30.20,SE,135,0.0,0.0,94,0.00,,,0.00,WUHU21623XXSP,2013-01-30 13:43:00,
2013-01-30 05:48:00,46.0,44.4,30.20,SE,135,0.0,0.0,94,0.00,,,0.00,WUHU21623XXSP,2013-01-30 13:48:00,
2013-01-30 05:53:00,46.0,44.4,30.21,SE,135,0.0,0.0,94,0.00,,,0.00,WUHU21623XXSP,2013-01-30 13:53:00,
2013-01-30 05:59:00,46.0,44.4,30.20,South,180,0.0,0.0,94,0.00,,,0.00,WUHU21623XXSP,2013-01-30 13:59:00,
2013-01-30 06:04:00,46.0,44.4,30.20,SE,135,0.0,0.0,94,0.00,,,0.00,WUHU21623XXSP,2013-01-30 14:04:00,
2013-01-30 06:09:00,46.0,44.4,30.20,SSE,157,0.0,0.0,94,0.00,,,0.00,WUHU21623XXSP,2013-01-30 14:09:00,
2013-01-30 06:14:00,46.0,44.4,30.21,ESE,112,0.0,0.0,94,0.00,,,0.00,WUHU21623XXSP,2013-01-30 14:14:00,
2013-01-30 06:20:00,46.0,44.4,30.20,SSW,202,0.0,0.0,94,0.00,,,0.00,WUHU21623XXSP,2013-01-30 14:20:00,
2013-01-30 06:25:00,46.0,44.4,30.20,WSW,247,0.0,0.0,94,0.00,,,0.00,WUHU21623XXSP,2013-01-30 14:25:00,
2013-01-30 06:30:00,46.0,44.4,30.20,SSE,157,0.0,0.0,94,0.00,,,0.00,WUHU21623XXSP,2013-01-30 14:30:00,
2013-01-30 06:35:00,46.0,44.4,30.20,SSE,157,0.0,0.0,94,0.00,,,0.00,WUHU21623XXSP,2013-01-30 14:35:00,
2013-01-30 06:41:00,46.0,44.4,30.21,SSE,157,0.0,0.0,94,0.00,,,0.00,WUHU21623XXSP,2013-01-30 14:41:00,
2013-01-30 06:46:00,46.0,44.4,30.21,SE,135,0.0,0.0,94,0.00,,,0.00,WUHU21623XXSP,2013-01-30 14:46:00,
2013-01-30 06:51:00,46.0,44.4,30.21,SE,135,0.0,0.0,94,0.00,,,0.00,WUHU21623XXSP,2013-01-30 14:51:00,
2013-01-30 06:56:00,46.0,44.4,30.21,SW,225,0.0,0.0,94,0.00,,,0.00,WUHU21623XXSP,2013-01-30 14:56:00,
2013-01-30 07:02:00,46.0,44.4,30.21,SW,225,0.0,0.0,94,0.00,,,0.00,WUHU21623XXSP,2013-01-30 15:02:00,
2013-01-30 07:07:00,46.2,44.6,30.21,SW,225,0.0,0.0,94,0.00,,,0.00,WUHU21623XXSP,2013-01-30 15:07:00,
2013-01-30 07:12:00,46.2,44.6,30.21,SE,135,0.0,0.0,94,0.00,,,0.00,WUHU21623XXSP,2013-01-30 15:12:00,
2013-01-30 07:18:00,46.2,44.6,30.21,SE,135,0.0,0.0,94,0.00,,,0.00,WUHU21623XXSP,2013-01-30 15:18:00,
2013-01-30 07:23:00,46.2,44.6,30.21,SSE,157,0.0,0.0,94,0.00,,,0.00,WUHU21623XXSP,2013-01-30 15:23:00,
2013-01-30 07:28:00,46.2,44.6,30.22,SE,135,0.0,0.0,94,0.00,,,0.00,WUHU21623XXSP,2013-01-30 15:28:00,
2013-01-30 07:33:00,46.4,44.8,30.22,SE,135,0.0,0.0,94,0.00,,,0.00,WUHU21623XXSP,2013-01-30 15:33:00,
2013-01-30 07:39:00,46.6,45.0,30.22,SW,225,0.0,0.0,94,0.00,,,0.00,WUHU21623XXSP,2013-01-30 15:39:00,
2013-01-30 07:44:00,46.6,45.0,30.22,SSW,202,0.0,0.0,94,0.00,,,0.00,WUHU21623XXSP,2013-01-30 15:44:00,
2013-01-30 07:49:00,46.6,45.0,30.22,SSW,202,0.0,0.0,94,0.00,,,0.00,WUHU21623XXSP,2013-01-30 15:49:00,
2013-01-30 07:54:00,46.6,45.0,30.22,SE,135,0.0,0.0,94,0.00,,,0.00,WUHU21623XXSP,2013-01-30 15:54:00,
2013-01-30 08:00:00,46.6,45.0,30.23,SE,135,0.0,2.7,94,0.00,,,0.00,WUHU21623XXSP,2013-01-30 16:00:00,
2013-01-30 08:05:00,46.6,45.0,30.22,SSE,157,0.0,2.7,94,0.00,,,0.00,WUHU21623XXSP,2013-01-30 16:05:00,
2013-01-30 08:10:00,46.6,45.0,30.23,SSE,157,0.0,0.0,94,0.00,,,0.00,WUHU21623XXSP,2013-01-30 16:10:00,
2013-01-30 08:15:00,46.6,45.0,30.23,SSW,202,0.0,0.0,94,0.00,,,0.00,WUHU21623XXSP,2013-01-30 16:15:00,
2013-01-30 08:21:00,46.8,45.1,30.23,SSE,157,0.0,0.0,94,0.00,,,0.00,WUHU21623XXSP,2013-01-30 16:21:00,
2013-01-30 08:26:00,46.8,45.1,30.23,SSW,202,0.0,0.0,94,0.00,,,0.00,WUHU21623XXSP,2013-01-30 16:26:00,
2013-01-30 08:31:00,46.8,45.1,30.23,East,90,0.0,0.0,94,0.00,,,0.00,WUHU21623XXSP,2013-01-30 16:31:00,
2013-01-30 08:37:00,46.8,45.1,30.23,ESE,112,0.0,0.0,94,0.00,,,0.00,WUHU21623XXSP,2013-01-30 16:37:00,
2013-01-30 08:42:00,46.9,45.3,30.23,ESE,112,0.0,0.0,94,0.00,,,0.00,WUHU21623XXSP,2013-01-30 16:42:00,
2013-01-30 08:47:00,46.9,45.3,30.23,SE,135,0.0,0.0,94,0.00,,,0.00,WUHU21623XXSP,2013-01-30 16:47:00,
2013-01-30 08:52:00,46.9,45.3,30.23,ESE,112,0.0,0.0,94,0.00,,,0.00,WUHU21623XXSP,2013-01-30 16:52:00,
2013-01-30 08:58:00,46.9,45.3,30.24,SE,135,2.5,2.5,94,0.00,,,0.00,WUHU21623XXSP,2013-01-30 16:58:00,
2013-01-30 09:03:00,46.9,45.3,30.24,SE,135,0.0,2.5,94,0.00,,,0.00,WUHU21623XXSP,2013-01-30 17:03:00,
2013-01-30 09:08:00,47.1,45.5,30.24,SE,135,0.0,0.0,94,0.00,,,0.00,WUHU21623XXSP,2013-01-30 17:08:00,
2013-01-30 09:13:00,46.9,45.3,30.24,SE,135,0.0,0.0,94,0.00,,,0.00,WUHU21623XXSP,2013-01-30 17:13:00,
2013-01-30 09:19:00,46.9,45.3,30.24,SW,225,0.0,0.0,94,0.00,,,0.00,WUHU21623XXSP,2013-01-30 17:19:00,
2013-01-30 09:24:00,47.1,45.5,30.24,SW,225,0.0,0.0,94,0.00,,,0.00,WUHU21623XXSP,2013-01-30 17:24:00,
2013-01-30 09:29:00,46.9,45.3,30.24,WSW,247,0.0,0.0,94,0.00,,,0.00,WUHU21623XXSP,2013-01-30 17:29:00,
2013-01-30 09:34:00,46.9,45.3,30.24,SE,135,0.0,0.0,94,0.00,,,0.00,WUHU21623XXSP,2013-01-30 17:34:00,
2013-01-30 09:40:00,46.9,45.3,30.24,WSW,247,0.0,0.0,94,0.00,,,0.00,WUHU21623XXSP,2013-01-30 17:40:00,
2013-01-30 09:45:00,46.9,45.3,30.24,ESE,112,0.0,0.0,94,0.00,,,0.00,WUHU21623XXSP,2013-01-30 17:45:00,
2013-01-30 09:50:00,46.9,45.3,30.24,SW,225,0.0,0.0,94,0.00,,,0.00,WUHU21623XXSP,2013-01-30 17:50:00,
2013-01-30 09:56:00,47.1,45.5,30.24,SW,225,0.0,0.0,94,0.00,,,0.00,WUHU21623XXSP,2013-01-30 17:56:00,
2013-01-30 10:01:00,46.9,45.3,30.25,SW,225,0.0,0.0,94,0.00,,,0.00,WUHU21623XXSP,2013-01-30 18:01:00,
2013-01-30 10:06:00,46.9,45.3,30.25,South,180,0.0,0.0,94,0.00,,,0.00,WUHU21623XXSP,2013-01-30 18:06:00,
2013-01-30 10:11:00,46.9,45.3,30.24,SE,135,0.0,0.0,94,0.00,,,0.00,WUHU21623XXSP,2013-01-30 18:11:00,
2013-01-30 10:17:00,47.1,45.5,30.25,WSW,247,0.0,0.0,94,0.00,,,0.00,WUHU21623XXSP,2013-01-30 18:17:00,
2013-01-30 10:22:00,47.1,45.5,30.25,SW,225,0.0,0.0,94,0.00,,,0.00,WUHU21623XXSP,2013-01-30 18:22:00,
2013-01-30 10:27:00,47.3,45.7,30.25,SSW,202,0.0,0.0,94,0.00,,,0.00,WUHU21623XXSP,2013-01-30 18:27:00,
2013-01-30 10:32:00,47.3,45.7,30.26,SSE,157,0.0,0.0,94,0.00,,,0.00,WUHU21623XXSP,2013-01-30 18:32:00,
2013-01-30 10:38:00,47.5,45.9,30.25,SW,225,0.0,0.0,94,0.00,,,0.00,WUHU21623XXSP,2013-01-30 18:38:00,
2013-01-30 10:43:00,47.5,45.9,30.25,SE,135,0.0,0.0,94,0.00,,,0.00,WUHU21623XXSP,2013-01-30 18:43:00,
2013-01-30 10:48:00,47.8,46.2,30.25,SSW,202,0.0,0.0,94,0.00,,,0.00,WUHU21623XXSP,2013-01-30 18:48:00,
2013-01-30 10:53:00,48.0,46.4,30.25,SSW,202,0.0,0.0,94,0.00,,,0.00,WUHU21623XXSP,2013-01-30 18:53:00,
2013-01-30 10:59:00,48.0,46.4,30.25,SW,225,0.0,0.0,94,0.00,,,0.00,WUHU21623XXSP,2013-01-30 18:59:00,
2013-01-30 11:04:00,48.0,46.4,30.25,West,270,0.0,0.0,94,0.00,,,0.00,WUHU21623XXSP,2013-01-30 19:04:00,
2013-01-30 11:09:00,48.0,46.4,30.26,NW,315,0.0,2.5,94,0.00,,,0.00,WUHU21623XXSP,2013-01-30 19:09:00,
2013-01-30 11:14:00,48.0,46.4,30.26,SW,225,0.0,2.5,94,0.00,,,0.00,WUHU21623XXSP,2013-01-30 19:14:00,
2013-01-30 11:20:00,48.2,46.6,30.25,SSE,157,3.8,3.8,94,0.00,,,0.00,WUHU21623XXSP,2013-01-30 19:20:00,
2013-01-30 11:25:00,48.4,46.7,30.25,South,180,0.0,3.8,94,0.00,,,0.00,WUHU21623XXSP,2013-01-30 19:25:00,
2013-01-30 11:30:00,48.4,46.7,30.26,ESE,112,4.0,6.5,94,0.00,,,0.00,WUHU21623XXSP,2013-01-30 19:30:00,
2013-01-30 11:36:00,48.4,46.7,30.25,West,270,0.0,6.5,94,0.00,,,0.00,WUHU21623XXSP,2013-01-30 19:36:00,
2013-01-30 11:41:00,48.4,46.7,30.26,SSW,202,0.0,0.0,94,0.00,,,0.00,WUHU21623XXSP,2013-01-30 19:41:00,
2013-01-30 11:46:00,48.4,46.7,30.26,WSW,247,0.0,0.0,94,0.00,,,0.00,WUHU21623XXSP,2013-01-30 19:46:00,
2013-01-30 11:51:00,48.4,46.7,30.25,SW,225,0.0,0.0,94,0.00,,,0.00,WUHU21623XXSP,2013-01-30 19:51:00,
2013-01-30 11:57:00,48.6,46.9,30.25,SE,135,0.0,2.0,94,0.00,,,0.00,WUHU21623XXSP,2013-01-30 19:57:00,
2013-01-30 12:02:00,48.7,47.1,30.25,SSE,157,0.0,2.0,94,0.00,,,0.00,WUHU21623XXSP,2013-01-30 20:02:00,
2013-01-30 12:07:00,48.6,46.9,30.25,SW,225,0.0,0.0,94,0.00,,,0.00,WUHU21623XXSP,2013-01-30 20:07:00,
2013-01-30 12:12:00,48.7,47.1,30.25,South,180,0.0,0.0,94,0.00,,,0.00,WUHU21623XXSP,2013-01-30 20:12:00,
2013-01-30 12:18:00,48.7,47.1,30.25,South,180,0.0,0.0,94,0.00,,,0.00,WUHU21623XXSP,2013-01-30 20:18:00,
2013-01-30 12:23:00,48.7,47.1,30.24,SSE,157,0.0,0.0,94,0.00,,,0.00,WUHU21623XXSP,2013-01-30 20:23:00,
2013-01-30 12:28:00,48.7,47.1,30.25,WSW,247,0.0,1.3,94,0.00,,,0.00,WUHU21623XXSP,2013-01-30 20:28:00,
2013-01-30 12:33:00,48.6,46.6,30.25,SW,225,0.0,1.3,93,0.00,,,0.00,WUHU21623XXSP,2013-01-30 20:33:00,
2013-01-30 12:39:00,48.6,46.6,30.25,SSW,202,0.0,0.0,93,0.00,,,0.00,WUHU21623XXSP,2013-01-30 20:39:00,
2013-01-30 12:44:00,48.7,47.1,30.25,South,180,0.0,0.0,94,0.00,,,0.00,WUHU21623XXSP,2013-01-30 20:44:00,
2013-01-30 12:49:00,48.7,47.1,30.26,SSW,202,0.0,0.0,94,0.00,,,0.00,WUHU21623XXSP,2013-01-30 20:49:00,
2013-01-30 12:54:00,48.7,46.8,30.25,SW,225,0.0,0.0,93,0.00,,,0.00,WUHU21623XXSP,2013-01-30 20:54:00,
2013-01-30 13:00:00,48.7,46.8,30.25,SSE,157,0.0,0.0,93,0.00,,,0.00,WUHU21623XXSP,2013-01-30 21:00:00,
2013-01-30 13:05:00,48.7,46.8,30.25,SW,225,0.0,0.0,93,0.00,,,0.00,WUHU21623XXSP,2013-01-30 21:05:00,
2013-01-30 13:10:00,48.7,46.8,30.25,South,180,0.0,0.0,93,0.00,,,0.00,WUHU21623XXSP,2013-01-30 21:10:00,
2013-01-30 13:15:00,48.7,46.8,30.24,SW,225,0.0,0.0,93,0.00,,,0.00,WUHU21623XXSP,2013-01-30 21:15:00,
2013-01-30 13:21:00,48.7,46.8,30.25,SSE,157,0.0,0.0,93,0.00,,,0.00,WUHU21623XXSP,2013-01-30 21:21:00,
2013-01-30 13:26:00,48.7,46.8,30.25,SSE,157,0.0,0.0,93,0.00,,,0.00,WUHU21623XXSP,2013-01-30 21:26:00,
2013-01-30 13:31:00,48.9,47.0,30.25,SW,225,0.0,0.0,93,0.00,,,0.00,WUHU21623XXSP,2013-01-30 21:31:00,
2013-01-30 13:36:00,48.7,46.8,30.25,SSW,202,0.0,0.0,93,0.00,,,0.00,WUHU21623XXSP,2013-01-30 21:36:00,
2013-01-30 13:42:00,48.9,47.0,30.25,SSW,202,0.0,0.0,93,0.00,,,0.00,WUHU21623XXSP,2013-01-30 21:42:00,
2013-01-30 13:47:00,48.9,47.0,30.24,SE,135,0.0,0.0,93,0.00,,,0.00,WUHU21623XXSP,2013-01-30 21:47:00,
2013-01-30 13:52:00,48.9,47.0,30.24,SW,225,0.0,0.0,93,0.00,,,0.00,WUHU21623XXSP,2013-01-30 21:52:00,
2013-01-30 13:58:00,49.1,47.1,30.25,SSW,202,0.0,0.0,93,0.00,,,0.00,WUHU21623XXSP,2013-01-30 21:58:00,
2013-01-30 14:03:00,49.1,47.1,30.24,SSW,202,0.0,0.0,93,0.00,,,0.00,WUHU21623XXSP,2013-01-30 22:03:00,
2013-01-30 14:08:00,49.3,47.3,30.25,SE,135,0.0,0.0,93,0.00,,,0.00,WUHU21623XXSP,2013-01-30 22:08:00,
2013-01-30 14:13:00,49.3,47.3,30.24,SE,135,0.0,0.0,93,0.00,,,0.00,WUHU21623XXSP,2013-01-30 22:13:00,
2013-01-30 14:19:00,49.3,47.3,30.24,SE,135,0.0,0.0,93,0.00,,,0.00,WUHU21623XXSP,2013-01-30 22:19:00,
2013-01-30 14:24:00,49.3,47.3,30.24,SSW,202,0.0,0.0,93,0.00,,,0.00,WUHU21623XXSP,2013-01-30 22:24:00,
2013-01-30 14:29:00,49.3,47.3,30.24,South,180,0.0,0.0,93,0.00,,,0.00,WUHU21623XXSP,2013-01-30 22:29:00,
2013-01-30 14:34:00,49.3,47.3,30.24,SSE,157,0.0,0.0,93,0.00,,,0.00,WUHU21623XXSP,2013-01-30 22:34:00,
2013-01-30 14:40:00,49.5,47.5,30.24,SSE,157,0.0,0.7,93,0.00,,,0.00,WUHU21623XXSP,2013-01-30 22:40:00,
2013-01-30 14:45:00,49.5,47.5,30.24,South,180,0.0,0.7,93,0.00,,,0.00,WUHU21623XXSP,2013-01-30 22:45:00,
2013-01-30 14:50:00,49.5,47.2,30.24,SW,225,0.0,0.0,92,0.00,,,0.00,WUHU21623XXSP,2013-01-30 22:50:00,
2013-01-30 14:55:00,49.6,47.4,30.24,SSE,157,0.0,0.0,92,0.00,,,0.00,WUHU21623XXSP,2013-01-30 22:55:00,
2013-01-30 15:01:00,49.6,47.4,30.24,SSE,157,0.0,0.0,92,0.00,,,0.00,WUHU21623XXSP,2013-01-30 23:01:00,
2013-01-30 15:06:00,49.6,47.4,30.24,SE,135,0.0,1.1,92,0.00,,,0.00,WUHU21623XXSP,2013-01-30 23:06:00,
2013-01-30 15:11:00,49.5,47.2,30.24,SE,135,0.0,1.1,92,0.00,,,0.00,WUHU21623XXSP,2013-01-30 23:11:00,
2013-01-30 15:16:00,49.3,47.0,30.24,SE,135,0.0,0.0,92,0.00,,,0.00,WUHU21623XXSP,2013-01-30 23:16:00,
2013-01-30 15:22:00,49.3,47.0,30.24,SE,135,0.0,0.0,92,0.00,,,0.00,WUHU21623XXSP,2013-01-30 23:22:00,
2013-01-30 15:27:00,49.5,47.2,30.24,SE,135,0.0,0.0,92,0.00,,,0.00,WUHU21623XXSP,2013-01-30 23:27:00,
2013-01-30 15:32:00,49.3,47.0,30.24,SE,135,0.0,0.0,92,0.00,,,0.00,WUHU21623XXSP,2013-01-30 23:32:00,
2013-01-30 15:37:00,49.5,47.2,30.24,SE,135,0.0,0.0,92,0.00,,,0.00,WUHU21623XXSP,2013-01-30 23:37:00,
2013-01-30 15:43:00,49.6,47.4,30.24,SE,135,0.0,0.0,92,0.00,,,0.00,WUHU21623XXSP,2013-01-30 23:43:00,
2013-01-30 15:48:00,49.5,47.2,30.24,SE,135,0.0,0.0,92,0.00,,,0.00,WUHU21623XXSP,2013-01-30 23:48:00,
2013-01-30 15:53:00,49.5,47.2,30.24,SSE,157,0.0,4.0,92,0.00,,,0.00,WUHU21623XXSP,2013-01-30 23:53:00,
2013-01-30 16:48:00,49.3,47.0,30.24,SSE,157,0.0,4.0,92,0.00,,,0.00,WUHU21623XXSP,2013-01-31 00:48:00,
2013-01-30 16:55:00,49.1,46.9,30.24,SE,135,1.8,1.8,92,0.00,,,0.00,WUHU21623XXSP,2013-01-31 00:55:00,
2013-01-30 17:00:00,49.1,46.9,30.24,SE,135,0.0,3.8,92,0.00,,,0.00,WUHU21623XXSP,2013-01-31 01:00:00,
2013-01-30 17:35:00,48.9,46.7,30.24,SE,135,0.0,2.7,92,0.00,,,0.00,WUHU21623XXSP,2013-01-31 01:35:00,
2013-01-30 17:40:00,48.9,46.7,30.24,SE,135,1.1,2.7,92,0.00,,,0.00,WUHU21623XXSP,2013-01-31 01:40:00,
2013-01-30 17:45:00,48.9,46.7,30.24,SE,135,2.5,2.5,92,0.00,,,0.00,WUHU21623XXSP,2013-01-31 01:45:00,
2013-01-30 17:50:00,48.9,46.7,30.24,SE,135,0.0,2.5,92,0.00,,,0.00,WUHU21623XXSP,2013-01-31 01:50:00,
2013-01-30 17:56:00,48.9,46.7,30.24,SE,135,0.0,0.0,92,0.00,,,0.00,WUHU21623XXSP,2013-01-31 01:56:00,
2013-01-30 18:01:00,48.9,46.7,30.24,SE,135,0.0,0.0,92,0.00,,,0.00,WUHU21623XXSP,2013-01-31 02:01:00,
2013-01-30 18:06:00,48.9,46.7,30.24,SE,135,0.0,0.0,92,0.00,,,0.00,WUHU21623XXSP,2013-01-31 02:06:00,
2013-01-30 18:11:00,48.9,46.7,30.24,SE,135,0.0,0.0,92,0.00,,,0.00,WUHU21623XXSP,2013-01-31 02:11:00,
2013-01-30 18:17:00,48.9,46.7,30.24,SE,135,0.0,0.0,92,0.00,,,0.00,WUHU21623XXSP,2013-01-31 02:17:00,
2013-01-30 18:22:00,48.9,46.7,30.24,SE,135,0.0,0.0,92,0.00,,,0.00,WUHU21623XXSP,2013-01-31 02:22:00,
2013-01-30 18:27:00,48.9,46.7,30.24,SE,135,0.0,0.0,92,0.00,,,0.00,WUHU21623XXSP,2013-01-31 02:27:00,
2013-01-30 18:33:00,48.9,46.7,30.24,SE,135,0.0,0.0,92,0.00,,,0.00,WUHU21623XXSP,2013-01-31 02:33:00,
2013-01-30 18:38:00,48.9,46.7,30.23,SE,135,0.0,0.0,92,0.00,,,0.00,WUHU21623XXSP,2013-01-31 02:38:00,
2013-01-30 18:43:00,48.9,46.7,30.23,SE,135,0.0,0.0,92,0.00,,,0.00,WUHU21623XXSP,2013-01-31 02:43:00,
2013-01-30 18:48:00,48.9,46.7,30.24,SE,135,0.0,0.0,92,0.00,,,0.00,WUHU21623XXSP,2013-01-31 02:48:00,
2013-01-30 18:54:00,48.9,46.7,30.24,SE,135,0.0,0.0,92,0.00,,,0.00,WUHU21623XXSP,2013-01-31 02:54:00,
2013-01-30 18:59:00,48.9,46.7,30.23,SE,135,0.0,0.0,92,0.00,,,0.00,WUHU21623XXSP,2013-01-31 02:59:00,
2013-01-30 19:04:00,48.9,46.7,30.23,SE,135,0.0,0.0,92,0.00,,,0.00,WUHU21623XXSP,2013-01-31 03:04:00,
2013-01-30 19:09:00,48.9,46.7,30.23,SE,135,0.0,0.0,92,0.00,,,0.00,WUHU21623XXSP,2013-01-31 03:09:00,
2013-01-30 19:15:00,48.9,46.7,30.23,SE,135,0.0,0.0,92,0.00,,,0.00,WUHU21623XXSP,2013-01-31 03:15:00,
2013-01-30 19:20:00,48.9,47.0,30.23,SE,135,0.0,0.0,93,0.00,,,0.00,WUHU21623XXSP,2013-01-31 03:20:00,
2013-01-30 19:25:00,48.9,47.0,30.23,SE,135,0.0,0.0,93,0.00,,,0.00,WUHU21623XXSP,2013-01-31 03:25:00,
2013-01-30 19:30:00,48.7,46.8,30.23,SE,135,0.0,0.0,93,0.00,,,0.00,WUHU21623XXSP,2013-01-31 03:30:00,
2013-01-30 19:36:00,48.7,46.8,30.23,SE,135,0.0,0.0,93,0.00,,,0.00,WUHU21623XXSP,2013-01-31 03:36:00,
2013-01-30 19:41:00,48.7,46.8,30.23,SE,135,0.0,0.0,93,0.00,,,0.00,WUHU21623XXSP,2013-01-31 03:41:00,
2013-01-30 19:46:00,48.7,46.8,30.23,SE,135,0.0,0.0,93,0.00,,,0.00,WUHU21623XXSP,2013-01-31 03:46:00,
2013-01-30 19:52:00,48.7,46.8,30.23,SE,135,0.0,0.0,93,0.00,,,0.00,WUHU21623XXSP,2013-01-31 03:52:00,
2013-01-30 19:57:00,48.7,46.8,30.23,SE,135,0.0,0.0,93,0.00,,,0.00,WUHU21623XXSP,2013-01-31 03:57:00,
2013-01-30 20:02:00,48.7,46.8,30.23,SE,135,0.0,0.0,93,0.00,,,0.00,WUHU21623XXSP,2013-01-31 04:02:00,
2013-01-30 20:07:00,48.7,46.8,30.23,SE,135,0.0,0.0,93,0.00,,,0.00,WUHU21623XXSP,2013-01-31 04:07:00,
2013-01-30 20:13:00,48.7,46.8,30.23,SE,135,0.0,0.0,93,0.00,,,0.00,WUHU21623XXSP,2013-01-31 04:13:00,
2013-01-30 20:18:00,48.7,46.8,30.23,SE,135,0.0,0.0,93,0.00,,,0.00,WUHU21623XXSP,2013-01-31 04:18:00,
2013-01-30 20:23:00,48.7,46.8,30.23,SE,135,0.0,0.0,93,0.00,,,0.00,WUHU21623XXSP,2013-01-31 04:23:00,
2013-01-30 20:29:00,48.7,46.8,30.23,SE,135,0.0,0.0,93,0.00,,,0.00,WUHU21623XXSP,2013-01-31 04:29:00,
2013-01-30 20:34:00,48.7,46.8,30.23,SE,135,0.0,0.0,93,0.00,,,0.00,WUHU21623XXSP,2013-01-31 04:34:00,
2013-01-30 20:39:00,48.7,46.8,30.23,SE,135,0.0,0.0,93,0.00,,,0.00,WUHU21623XXSP,2013-01-31 04:39:00,
2013-01-30 20:44:00,48.7,46.8,30.23,SE,135,0.0,0.0,93,0.00,,,0.00,WUHU21623XXSP,2013-01-31 04:44:00,
2013-01-30 20:50:00,48.7,46.8,30.23,ESE,112,0.0,0.0,93,0.00,,,0.00,WUHU21623XXSP,2013-01-31 04:50:00,
2013-01-30 20:55:00,48.6,46.6,30.23,South,180,0.0,0.0,93,0.00,,,0.00,WUHU21623XXSP,2013-01-31 04:55:00,
2013-01-30 21:00:00,48.6,46.6,30.23,SE,135,0.0,0.0,93,0.00,,,0.00,WUHU21623XXSP,2013-01-31 05:00:00,
2013-01-30 21:05:00,48.6,46.6,30.23,SW,225,0.0,0.0,93,0.00,,,0.00,WUHU21623XXSP,2013-01-31 05:05:00,
2013-01-30 21:11:00,48.6,46.6,30.23,SW,225,0.0,0.0,93,0.00,,,0.00,WUHU21623XXSP,2013-01-31 05:11:00,
2013-01-30 21:16:00,48.6,46.6,30.23,SW,225,0.0,0.0,93,0.00,,,0.00,WUHU21623XXSP,2013-01-31 05:16:00,
2013-01-30 21:21:00,48.6,46.6,30.23,SW,225,0.0,0.0,93,0.00,,,0.00,WUHU21623XXSP,2013-01-31 05:21:00,
2013-01-30 21:26:00,48.7,46.8,30.23,SW,225,0.0,0.0,93,0.00,,,0.00,WUHU21623XXSP,2013-01-31 05:26:00,
2013-01-30 21:32:00,48.7,46.8,30.24,SW,225,0.0,0.0,93,0.00,,,0.00,WUHU21623XXSP,2013-01-31 05:32:00,
2013-01-30 21:37:00,48.7,46.8,30.23,SW,225,0.0,0.0,93,0.00,,,0.00,WUHU21623XXSP,2013-01-31 05:37:00,
2013-01-30 21:42:00,48.7,46.8,30.24,SW,225,0.0,0.0,93,0.00,,,0.00,WUHU21623XXSP,2013-01-31 05:42:00,
2013-01-30 21:47:00,48.6,46.6,30.24,SW,225,0.0,0.0,93,0.00,,,0.00,WUHU21623XXSP,2013-01-31 05:47:00,
2013-01-30 21:53:00,48.7,46.8,30.25,SW,225,0.0,0.0,93,0.00,,,0.00,WUHU21623XXSP,2013-01-31 05:53:00,
2013-01-30 21:58:00,48.6,46.6,30.24,SW,225,0.0,0.0,93,0.00,,,0.00,WUHU21623XXSP,2013-01-31 05:58:00,
2013-01-30 22:03:00,48.6,46.6,30.24,SW,225,0.0,0.0,93,0.00,,,0.00,WUHU21623XXSP,2013-01-31 06:03:00,
2013-01-30 22:08:00,48.6,46.6,30.24,SW,225,0.0,0.0,93,0.00,,,0.00,WUHU21623XXSP,2013-01-31 06:08:00,
2013-01-30 22:14:00,48.6,46.6,30.25,SW,225,0.0,0.0,93,0.00,,,0.00,WUHU21623XXSP,2013-01-31 06:14:00,
2013-01-30 22:19:00,48.6,46.6,30.24,SSW,202,0.0,0.0,93,0.00,,,0.00,WUHU21623XXSP,2013-01-31 06:19:00,
2013-01-30 22:24:00,48.4,46.5,30.24,SSW,202,0.0,0.0,93,0.00,,,0.00,WUHU21623XXSP,2013-01-31 06:24:00,
2013-01-30 22:30:00,48.4,46.5,30.24,SE,135,0.0,0.0,93,0.00,,,0.00,WUHU21623XXSP,2013-01-31 06:30:00,
2013-01-30 22:35:00,48.4,46.5,30.24,South,180,0.0,0.0,93,0.00,,,0.00,WUHU21623XXSP,2013-01-31 06:35:00,
2013-01-30 22:40:00,48.2,46.3,30.24,South,180,0.0,0.0,93,0.00,,,0.00,WUHU21623XXSP,2013-01-31 06:40:00,
2013-01-30 22:45:00,48.2,46.3,30.24,South,180,0.0,0.0,93,0.00,,,0.00,WUHU21623XXSP,2013-01-31 06:45:00,
2013-01-30 22:51:00,48.0,46.1,30.24,SW,225,0.0,0.0,93,0.00,,,0.00,WUHU21623XXSP,2013-01-31 06:51:00,
2013-01-30 22:56:00,48.0,46.1,30.23,SSW,202,0.0,0.0,93,0.00,,,0.00,WUHU21623XXSP,2013-01-31 06:56:00,
2013-01-30 23:01:00,48.0,46.1,30.24,SE,135,0.0,2.7,93,0.00,,,0.00,WUHU21623XXSP,2013-01-31 07:01:00,
2013-01-30 23:06:00,48.0,46.1,30.24,SE,135,0.0,2.7,93,0.00,,,0.00,WUHU21623XXSP,2013-01-31 07:06:00,
2013-01-30 23:12:00,48.0,46.1,30.24,SE,135,0.0,0.0,93,0.00,,,0.00,WUHU21623XXSP,2013-01-31 07:12:00,
2013-01-30 23:17:00,48.0,46.1,30.24,SE,135,0.0,0.0,93,0.00,,,0.00,WUHU21623XXSP,2013-01-31 07:17:00,
2013-01-30 23:22:00,48.0,46.1,30.24,SE,135,0.0,0.0,93,0.00,,,0.00,WUHU21623XXSP,2013-01-31 07:22:00,
2013-01-30 23:27:00,48.0,46.1,30.24,SE,135,0.0,0.0,93,0.00,,,0.00,WUHU21623XXSP,2013-01-31 07:27:00,
2013-01-30 23:33:00,48.0,46.1,30.24,SE,135,0.0,0.0,93,0.00,,,0.00,WUHU21623XXSP,2013-01-31 07:33:00,
2013-01-30 23:38:00,48.0,46.1,30.24,SE,135,0.0,0.0,93,0.00,,,0.00,WUHU21623XXSP,2013-01-31 07:38:00,
2013-01-30 23:43:00,48.0,46.1,30.24,SE,135,0.0,0.0,93,0.00,,,0.00,WUHU21623XXSP,2013-01-31 07:43:00,
2013-01-30 23:48:00,48.0,46.1,30.24,SE,135,0.0,0.0,93,0.00,,,0.00,WUHU21623XXSP,2013-01-31 07:48:00,
2013-01-30 23:54:00,48.0,46.1,30.24,SE,135,0.0,0.0,93,0.00,,,0.00,WUHU21623XXSP,2013-01-31 07:54:00,
2013-01-30 23:59:00,48.0,46.1,30.24,SE,135,0.0,0.0,93,0.00,,,0.00,WUHU21623XXSP,2013-01-31 07:59:00,